Notices

What's New in latest Release from April 7th, 2021:

- Updated Glossary, including Speed of Maximum Gust, and Total Hourly Precipitation

- Updated national and regional climate services offices contacts and prices information

- Addition of station inventory lists for 1981-2010, 1971-2000, and 1961-1990 Normals.

If you haven't already, please take our survey and provide feedback about our website: https://eccc.sondage-survey.ca/f/LanguageSelection.aspx?s=442ca660-fcf1-47c0-95a9-59707d6fd709

Hourly Data Report for March 07, 2010

HALIFAX STANFIELD INT'L A
NOVA SCOTIA

44°52'48.060" N
63°30'00.050" W
145.40 m
8202250
71395
YHZ

Download Data

Hourly Data (March 2010)
Hourly Data Report for March 7, 2010
TIME
LST
Temp Definition
°C
Dew Point Definition
°C
Rel Hum Definition
%
Precip. Amount Definition
mm

Wind Dir Definition
10's deg

Wind Spd Definition
km/h
Visibility Definition
km
Stn Press Definition
kPa
Hmdx Definition


Wind Chill Definition


Weather Definition


00:00 -2.6 -8.4 64   35 9 24.1 98.87   -6 Mainly Clear
01:00 -2.3 -8.9 60   33 11 24.1 98.86   -6 Mainly Clear
02:00 -1.8 -9.8 54   34 13 24.1 98.85   -6 Mainly Clear
03:00 -2.6 -9.6 59   31 13 24.1 98.82   -7 Clear
04:00 -3.0 -9.6 60   31 13 24.1 98.85   -8 Clear
05:00 -4.6 -8.0 77   30 7 24.1 98.89   -8 Clear
06:00 -3.9 -7.6 75   30 9 24.1 98.93   -8 Mainly Clear
07:00 -4.3 -7.1 81   30 11 24.1 99.00   -9 Clear
08:00 -2.0 -7.0 69   31 11 24.1 99.05   -6 Clear
09:00 0.0 -6.1 63   33 15 24.1 99.07   -4 Clear
10:00 2.1 -6.5 53   36 15 24.1 99.07     Clear
11:00 3.9 -5.7 50   32 20 24.1 99.05     Clear
12:00 4.6 -6.7 44   36 13 24.1 99.01     Clear
13:00 5.2 -6.6 42   30 11 24.1 98.92     Mainly Clear
14:00 6.0 -6.2 41   33 13 24.1 98.86     Mainly Clear
15:00 6.3 -6.3 40   30 13 24.1 98.82     Mostly Cloudy
16:00 6.0 -6.9 39   29 9 24.1 98.79     Mostly Cloudy
17:00 5.0 -6.2 44   34 6 24.1 98.80     Mostly Cloudy
18:00 2.7 -6.6 50   28 6 24.1 98.81     Mostly Cloudy
19:00 1.3 -7.0 54   24 9 24.1 98.83     Mostly Cloudy
20:00 -1.0 -7.0 64   26 6 24.1 98.85   -3 Clear
21:00 -1.0 -6.6 66   22 9 24.1 98.81   -4 Clear
22:00 -1.3 -5.9 71   24 9 24.1 98.76   -5 Clear
23:00 -2.2 -5.9 76   20 7 24.1 98.73   -5 Clear

Notes on Data Quality.

Legend

  • E = Estimated
  • M = Missing
  • NA = Not Available*
  • [empty] = Indicates an unobserved value
Date modified: